Location: Newark
(42.8481°N, 0.4872°E)
Time: 13:41:22
(UTC+00:00)

A-11 Canister half - Pass Details

Date: 02 November 2020
Orbit: 1525 x 1684 km, 47.3° (Epoch: 01 December)

Event Time Altitude Azimuth Distance (km) Brightness Sun altitude
Rises 14:28:26 0° 256° (WSW) 4,806 12.5 20.6°
Reaches altitude 10° 14:31:35 10° 258° (WSW) 3,800 12.1 20.2°
Maximum altitude 14:41:14 76° 344° (NNW) 1,597 9.4 19.0°
Drops below altitude 10° 14:50:37 10° 71° (ENE) 3,705 10.5 17.7°
Sets 14:53:39 0° 73° (ENE) 4,681 11.0 17.3°
